Wetbulb
50.75 50.66 50.79 50.85 50.92 51.12 51.29 51.12 51.05 51.08 51.16 51.34 51.72 52.37 53.51 54.07 54.99 51.90 49.70 53.35 54.92 59.29 59.12 54.66 53.52 50.00 49.85 47.04 48.36 47.58 38.27 36.56 38.97 40.27 42.74 47.75 45.25 47.49 47.51 45.50 47.45 51.40 54.27 59.19 62.17
50.84 50.71 50.82 50.92 50.85 51.01 51.06 50.89 50.76 50.84 51.01 51.11 51.28 51.39 51.99 52.96 49.80 50.19 53.58 55.32 56.63 58.39 53.08 50.70 47.33 48.15 44.89 45.99 45.83 42.10 37.31 38.37 42.64 42.82 42.01 44.52 44.72 44.14 44.37 45.13 44.26 49.40 56.70 60.83 60.62
51.42 51.23 51.13 50.96 50.99 51.02 51.03 50.84 50.62 50.71 50.83 50.86 50.88 50.94 50.86 50.52 46.09 48.37 53.33 54.29 55.28 55.64 51.80 51.35 49.99 47.30 43.37 45.29 44.20 43.04 37.80 42.02 42.81 44.21 44.32 43.22 42.92 44.65 42.64 42.38 45.61 45.90 54.54 58.93 58.41
49.80 49.98 50.60 51.06 50.92 50.92 50.91 50.90 50.77 50.61 50.83 50.74 50.45 50.38 50.35 47.32 37.78 50.22 53.63 54.57 56.34 53.43 49.82 49.98 47.57 44.13 42.27 41.44 45.16 39.85 43.19 43.58 44.30 44.99 43.24 41.47 43.49 42.26 42.45 43.57 46.64 46.90 53.59 58.37 57.16
48.88 49.02 48.81 49.36 50.01 50.66 50.61 50.58 50.58 50.39 50.54 50.57 50.34 49.95 46.23 40.31 42.90 51.92 55.10 53.77 51.37 50.17 46.46 45.28 44.86 43.69 40.36 42.67 43.82 41.83 42.97 44.16 44.71 44.21 42.56 43.44 41.00 41.19 41.98 44.76 46.21 49.21 54.64 56.95 57.24
48.62 48.54 48.29 48.47 49.00 49.44 49.64 49.59 49.73 49.91 50.17 50.29 49.69 49.27 42.32 34.42 48.99 50.21 50.56 50.10 49.01 47.23 45.74 45.08 44.67 46.42 41.80 40.47 40.30 43.39 42.77 42.51 43.66 43.56 43.80 41.29 41.08 40.95 41.76 44.36 44.39 46.51 47.97 53.61 56.67
47.79 48.29 47.71 47.90 48.31 48.79 48.81 49.09 49.51 49.82 49.85 49.94 49.15 47.35 39.87 37.89 48.71 50.28 49.82 48.82 50.33 48.71 44.44 46.25 46.09 43.94 44.23 39.78 43.76 42.36 38.12 40.69 41.42 42.36 41.29 41.66 38.29 38.93 43.04 43.55 43.18 44.05 44.86 48.22 52.55
47.42 47.63 47.43 47.74 47.93 48.14 48.40 48.86 49.26 49.44 49.15 48.50 49.62 45.57 37.06 47.75 50.14 47.78 46.40 47.51 50.20 49.95 47.91 47.41 46.79 42.95 42.21 44.66 41.60 37.25 37.63 32.33 39.85 41.69 42.49 40.33 33.55 41.55 43.60 42.60 41.94 42.42 43.12 44.69 46.37
47.08 47.48 47.58 47.92 47.66 47.87 48.53 48.50 48.98 48.37 46.84 47.65 46.02 42.69 38.35 48.99 39.84 42.83 43.17 39.59 43.94 46.93 46.20 48.02 45.11 41.37 41.99 37.24 34.04 35.17 28.77 32.45 36.27 41.98 41.63 39.13 35.04 41.57 44.47 42.47 41.52 42.53 43.33 44.05 45.50
46.94 46.99 47.44 47.37 47.43 47.92 47.98 48.63 49.28 46.02 43.89 45.33 45.62 35.92 41.00 34.46 39.87 42.48 44.32 43.94 39.72 39.12 39.29 42.49 39.48 35.45 36.17 33.94 25.31 29.08 30.47 33.28 32.94 38.60 40.46 38.00 36.61 40.24 42.99 41.63 40.75 41.02 42.04 43.41 44.27
46.37 46.88 46.84 47.25 47.56 47.91 46.46 42.91 36.47 37.06 36.47 32.49 32.80 32.81 35.72 38.93 42.70 40.21 41.40 40.52 40.08 38.05 29.64 34.89 32.50 29.41 33.08 35.68 35.80 35.20 33.23 32.32 36.42 39.85 37.88 36.86 37.28 39.43 41.67 41.83 40.02 39.47 39.98 41.39 42.33
46.45 47.04 47.18 47.03 47.64 47.35 45.10 36.70 35.75 35.41 28.01 34.96 35.35 35.12 38.04 41.17 34.66 38.94 39.95 32.61 31.90 26.88 32.74 29.11 25.88 34.11 37.37 37.20 35.51 34.64 32.53 31.91 36.33 39.12 37.77 36.95 35.88 38.76 40.43 40.87 41.85 41.70 41.14 41.06 41.53
46.55 46.35 46.70 46.84 47.23 44.64 41.05 39.10 43.84 41.41 28.54 31.77 34.59 34.69 36.90 38.61 34.48 32.49 36.38 33.24 28.61 26.11 27.23 24.09 28.00 32.11 30.36 29.60 29.01 32.47 31.60 32.57 33.18 36.81 38.01 32.56 31.33 34.85 38.96 41.16 42.13 43.26 43.82 43.58 43.32
46.20 46.16 46.16 46.56 42.19 41.94 38.81 43.32 44.26 42.45 24.10 27.47 30.99 35.55 36.20 36.07 31.34 36.86 37.51 33.62 29.53 24.80 26.28 25.31 30.76 28.78 26.69 27.29 29.43 25.55 34.54 35.07 34.68 32.90 26.97 32.90 24.64 33.77 37.45 38.71 40.20 42.05 42.57 43.01 43.62
45.60 45.81 46.03 46.24 41.72 38.38 40.81 43.78 43.69 39.26 10.51 28.27 32.36 40.40 36.11 31.12 31.63 32.68 38.60 33.78 25.62 25.44 25.57 21.32 24.21 24.33 23.70 26.06 30.93 27.88 34.23 32.48 32.96 32.60 30.72 30.57 27.80 32.33 36.57 36.22 39.43 41.89 42.57 43.57 44.00
44.95 45.30 45.43 42.86 42.36 42.87 44.31 43.45 40.22 23.12 7.54 22.57 29.96 28.64 27.73 29.91 30.33 32.98 32.29 34.45 32.58 26.78 27.20 25.44 30.67 28.22 26.95 30.08 30.81 33.64 31.27 31.71 32.01 30.86 23.10 28.72 28.68 28.62 33.27 36.72 38.76 42.14 43.83 44.04 44.24
44.66 44.80 43.77 43.17 37.52 44.41 43.91 38.32 21.69 12.02 25.27 21.67 23.73 27.07 25.52 24.59 26.61 27.87 26.09 24.14 20.53 14.96 16.43 22.51 23.44 28.27 30.29 25.35 30.69 30.73 26.57 20.88 21.20 21.09 19.91 30.36 27.43 30.06 36.21 39.67 41.16 42.36 42.91 43.43 44.73
44.28 44.47 43.89 42.90 44.22 43.43 40.35 28.30 9.26 17.36 20.90 27.60 25.21 24.68 21.12 25.05 24.67 24.66 22.74 19.64 25.37 23.00 18.27 15.63 12.20 24.50 31.27 25.99 24.23 26.54 25.60 21.89 17.13 17.30 20.66 29.40 23.36 29.20 38.67 40.52 41.83 41.20 41.70 43.35 43.75
43.70 41.33 40.99 42.39 44.03 41.99 32.62 16.72 15.17 21.28 25.14 22.48 23.18 19.55 19.57 23.29 22.46 22.06 21.22 20.19 24.15 24.82 13.68 14.41 13.97 25.31 26.91 28.10 27.94 25.63 22.72 29.51 23.91 25.31 20.49 24.13 30.30 35.79 38.69 39.81 40.02 39.76 41.98 41.40 43.28
38.94 37.61 37.73 42.76 42.37 38.32 26.55 18.78 19.22 27.35 27.01 25.29 16.78 20.13 15.69 18.70 18.02 18.59 18.74 23.88 22.55 26.62 26.73 20.81 12.68 22.56 25.21 29.96 30.85 27.87 31.54 22.90 24.04 18.33 17.39 22.47 26.42 27.89 33.63 36.41 38.72 39.40 39.01 40.52 42.60
38.62 31.57 38.94 42.85 41.82 30.71 19.47 19.54 24.33 29.16 28.54 21.59 19.67 18.45 18.45 16.66 18.95 17.55 18.26 22.92 25.78 24.71 26.87 23.65 19.77 18.38 24.14 22.00 23.79 26.40 25.55 25.96 27.30 25.18 19.98 16.62 22.54 34.33 35.77 35.92 36.84 39.11 38.78 38.05 40.76
34.85 25.60 39.55 41.03 27.09 27.53 21.48 21.23 27.57 25.80 28.52 25.39 24.60 21.72 19.91 20.15 16.17 15.83 17.10 20.48 27.21 26.77 20.83 24.47 22.42 14.38 17.36 26.34 29.43 27.88 26.33 27.47 20.76 20.55 24.62 23.93 24.29 36.30 35.57 36.42 37.52 38.07 38.39 35.97 37.97
29.01 30.03 39.25 37.21 19.50 21.60 24.14 21.72 24.59 23.76 24.31 24.23 20.88 23.68 21.85 19.68 15.76 17.51 18.16 23.42 26.21 25.54 22.26 25.54 19.58 13.21 13.23 23.26 27.63 24.51 26.32 26.89 29.13 28.44 23.10 19.91 23.52 37.52 36.35 37.02 37.06 37.24 38.34 37.30 37.17
28.94 23.03 30.15 30.72 29.29 24.01 20.71 20.34 18.66 26.36 24.87 25.56 23.79 24.89 20.77 17.03 20.66 17.60 18.98 22.91 27.08 26.39 30.41 27.56 21.43 18.30 13.68 18.02 23.14 20.64 23.60 25.90 25.47 22.71 23.83 25.13 26.18 34.02 35.41 34.55 35.77 37.17 38.91 37.47 37.41
30.04 24.32 28.47 21.29 23.39 24.98 24.79 22.60 20.61 19.10 25.08 25.67 22.08 21.67 18.62 15.44 15.93 16.61 20.36 21.45 24.70 27.84 25.98 23.80 16.22 18.88 21.07 21.58 21.30 23.18 22.21 23.63 26.85 27.74 23.36 26.80 24.77 33.69 34.80 34.16 34.26 36.06 38.38 39.33 37.29
26.95 26.24 27.97 23.62 24.44 22.86 23.78 20.21 20.38 21.32 21.66 19.89 20.47 22.85 22.31 18.10 18.53 16.41 20.23 20.94 19.87 23.93 22.16 23.35 15.64 18.65 15.13 19.31 21.56 19.92 22.31 26.66 27.68 29.40 28.46 27.86 27.94 37.56 36.83 37.36 37.49 37.64 38.52 38.82 38.59
33.20 32.95 28.40 23.61 22.06 20.84 20.80 22.29 22.44 24.42 24.79 25.83 23.98 22.64 20.53 22.58 26.51 25.60 26.53 25.81 24.56 21.92 20.33 20.09 17.45 14.95 10.06 16.46 17.41 15.88 21.85 24.56 26.21 29.52 31.05 25.50 32.03 37.68 36.26 36.93 36.48 37.15 38.68 39.16 40.58
MSLP
1024.54 1024.28 1024.03 1023.74 1023.37 1022.96 1022.57 1022.27 1021.92 1021.44 1021.01 1020.50 1019.89 1019.21 1018.46 1017.61 1016.70 1015.21 1015.50 1016.59 1015.87 1014.98 1014.28 1013.22 1012.27 1011.53 1011.40 1011.05 1010.43 1010.39 1010.04 1008.73 1008.07 1007.44 1006.51 1005.56 1005.15 1005.18 1005.32 1005.54 1005.35 1005.75 1006.44 1007.18 1008.52
1024.76 1024.53 1024.26 1023.89 1023.48 1023.03 1022.66 1022.41 1021.99 1021.56 1021.09 1020.58 1019.89 1019.28 1018.47 1017.61 1016.59 1015.76 1016.83 1016.32 1015.71 1014.87 1014.01 1013.27 1012.35 1011.58 1011.30 1010.74 1010.56 1010.41 1009.50 1008.30 1007.81 1006.97 1006.47 1006.12 1005.73 1005.73 1005.90 1005.85 1005.92 1006.28 1007.41 1008.41 1009.23
1024.94 1024.53 1024.27 1023.97 1023.58 1023.13 1022.74 1022.35 1021.94 1021.51 1021.08 1020.57 1019.94 1019.22 1018.50 1017.55 1016.01 1016.32 1016.51 1016.21 1015.92 1015.19 1014.43 1013.74 1013.07 1012.40 1011.65 1010.80 1010.43 1009.66 1009.13 1008.40 1007.61 1007.03 1006.82 1006.72 1006.61 1006.41 1006.34 1006.30 1006.16 1006.38 1007.07 1008.51 1009.48
1025.33 1024.98 1024.54 1024.06 1023.59 1023.17 1022.81 1022.37 1021.93 1021.38 1021.06 1020.58 1020.11 1019.29 1018.28 1017.23 1016.64 1016.40 1016.32 1016.04 1015.89 1015.37 1014.57 1013.63 1013.02 1012.63 1011.78 1010.88 1010.13 1009.70 1009.10 1008.45 1007.90 1007.41 1007.29 1007.28 1007.30 1007.17 1006.74 1006.25 1006.23 1006.37 1006.88 1007.80 1008.89
1025.48 1025.11 1024.64 1024.31 1023.80 1023.16 1022.67 1022.28 1021.89 1021.41 1020.87 1020.52 1020.22 1019.72 1018.62 1017.44 1016.64 1016.25 1016.25 1016.08 1015.81 1015.52 1015.31 1014.62 1013.84 1012.95 1012.23 1010.97 1010.18 1009.34 1008.85 1008.37 1007.96 1007.82 1007.45 1007.59 1007.54 1007.45 1006.82 1006.33 1006.12 1006.27 1006.88 1007.80 1008.60
1025.71 1025.19 1024.77 1024.36 1023.82 1023.34 1022.78 1022.28 1021.79 1021.37 1020.78 1020.45 1019.99 1019.80 1019.24 1017.80 1016.95 1016.83 1016.39 1015.97 1015.84 1015.63 1015.44 1015.47 1014.56 1013.92 1012.91 1011.68 1011.03 1009.56 1008.96 1008.37 1007.89 1007.80 1007.58 1007.53 1007.29 1007.56 1006.63 1006.37 1006.21 1006.25 1006.55 1007.21 1007.73
1025.81 1025.33 1024.81 1024.23 1023.82 1023.33 1022.74 1021.99 1021.42 1021.03 1020.50 1020.04 1019.62 1019.40 1018.97 1018.06 1017.28 1016.99 1016.58 1016.18 1015.92 1015.87 1015.57 1015.61 1015.32 1015.14 1013.85 1012.12 1011.01 1010.34 1009.57 1008.67 1007.97 1007.73 1007.54 1007.51 1006.54 1006.46 1006.18 1006.26 1005.81 1005.73 1006.11 1006.29 1006.91
1025.87 1025.29 1024.81 1024.34 1023.66 1022.99 1022.42 1021.63 1021.04 1020.61 1020.08 1019.61 1019.24 1018.93 1018.31 1017.54 1017.45 1017.14 1017.04 1016.33 1016.11 1015.78 1015.49 1015.37 1015.60 1015.32 1014.75 1013.47 1011.83 1010.99 1009.97 1008.75 1007.43 1007.29 1006.94 1007.53 1005.07 1005.36 1005.07 1005.44 1005.22 1005.12 1005.40 1005.53 1005.83
1025.84 1025.32 1024.89 1024.23 1023.71 1023.09 1022.21 1021.30 1020.63 1020.02 1019.70 1019.20 1019.17 1018.74 1017.62 1017.43 1017.61 1017.60 1017.55 1016.85 1016.38 1016.21 1015.86 1014.85 1015.32 1014.96 1014.21 1013.69 1012.79 1011.22 1009.77 1008.54 1007.10 1006.37 1006.10 1006.20 1005.09 1004.88 1004.45 1004.41 1004.28 1004.32 1004.48 1004.74 1004.85
1025.94 1025.51 1025.03 1024.37 1023.74 1023.08 1022.08 1020.64 1019.87 1020.06 1019.31 1018.52 1018.69 1019.11 1018.24 1018.68 1018.55 1018.20 1017.91 1017.19 1016.96 1016.48 1016.15 1015.38 1015.41 1014.70 1013.67 1013.55 1011.36 1010.53 1009.34 1007.92 1006.22 1005.98 1005.33 1004.85 1004.26 1004.53 1004.08 1003.69 1003.48 1003.45 1003.36 1003.70 1003.96
1026.11 1025.66 1025.07 1024.31 1023.76 1023.14 1022.23 1020.57 1020.89 1020.33 1020.76 1020.48 1020.33 1020.13 1019.27 1019.41 1018.60 1018.38 1017.90 1017.28 1017.16 1016.80 1016.71 1016.17 1015.61 1013.30 1013.80 1013.24 1012.10 1011.21 1009.58 1007.80 1005.86 1005.46 1005.53 1004.69 1004.41 1004.07 1003.91 1003.69 1003.25 1002.89 1002.98 1002.79 1002.87
1026.13 1025.74 1025.18 1024.65 1024.24 1023.69 1022.95 1022.66 1023.56 1024.34 1022.20 1020.74 1020.38 1020.14 1019.59 1019.34 1018.58 1018.22 1018.15 1018.12 1018.03 1018.13 1017.57 1017.16 1015.01 1014.18 1014.20 1013.28 1012.44 1011.26 1009.95 1007.19 1007.12 1006.23 1005.22 1004.52 1004.05 1003.70 1003.31 1002.91 1002.65 1002.23 1002.18 1002.28 1002.41
1026.42 1026.06 1025.63 1025.01 1024.30 1024.00 1023.41 1023.62 1023.62 1023.40 1022.85 1020.83 1020.21 1019.97 1019.70 1019.32 1018.85 1018.68 1018.35 1018.45 1018.65 1018.73 1018.53 1017.89 1015.05 1015.84 1015.46 1014.42 1013.56 1011.69 1009.86 1008.76 1007.85 1007.22 1005.59 1005.05 1004.09 1003.49 1002.62 1002.32 1001.80 1001.15 1000.87 1000.94 1001.22
1026.71 1026.29 1025.78 1025.08 1024.15 1024.03 1023.52 1023.55 1023.45 1023.48 1022.87 1020.65 1019.99 1020.16 1019.57 1019.14 1019.06 1018.98 1018.59 1019.01 1019.27 1019.42 1019.07 1017.38 1016.55 1016.42 1016.06 1014.60 1014.43 1012.45 1011.61 1009.94 1008.70 1008.08 1006.25 1005.94 1003.00 1002.75 1001.87 1000.71 1000.36 999.75 999.82 999.74 1000.01
1026.83 1026.32 1025.73 1025.12 1025.02 1024.36 1024.26 1023.69 1023.54 1023.48 1022.96 1021.00 1020.25 1020.04 1019.86 1020.31 1019.95 1019.06 1018.86 1018.97 1019.48 1019.54 1019.93 1016.71 1017.18 1017.03 1015.96 1014.62 1014.14 1011.68 1012.30 1011.19 1010.07 1008.01 1007.12 1006.43 1005.06 999.16 1001.30 999.71 998.45 998.63 998.63 998.58 998.81
1026.90 1026.44 1025.98 1025.17 1024.93 1024.65 1024.35 1023.98 1023.68 1023.79 1022.69 1021.48 1020.52 1020.30 1020.24 1020.27 1019.95 1019.31 1019.38 1019.48 1019.43 1019.23 1019.12 1017.32 1017.22 1016.50 1014.86 1014.15 1013.35 1012.89 1012.22 1010.87 1010.40 1009.09 1006.94 1004.97 1004.93 998.78 999.45 996.86 998.06 997.43 997.18 997.14 997.55
1026.76 1026.32 1025.98 1025.47 1025.08 1024.71 1024.63 1024.31 1024.24 1023.56 1023.14 1022.14 1021.44 1021.21 1021.20 1020.59 1020.18 1019.97 1019.89 1019.74 1019.72 1019.07 1018.65 1017.73 1016.03 1014.96 1013.40 1013.34 1012.74 1012.65 1012.85 1011.04 1009.71 1008.04 1005.63 1003.63 1003.74 998.56 997.11 997.04 996.44 996.47 996.39 996.16 996.15
1026.74 1026.10 1025.58 1025.38 1025.39 1025.14 1025.10 1024.95 1024.53 1023.75 1023.31 1022.87 1022.65 1022.41 1021.97 1021.36 1021.16 1020.86 1020.71 1020.25 1020.02 1019.83 1019.35 1018.13 1016.48 1014.87 1012.95 1014.33 1013.55 1011.51 1011.73 1010.07 1008.55 1006.22 1003.53 1003.98 1001.07 997.42 998.02 997.38 995.91 995.72 995.96 995.88 995.71
1026.62 1025.73 1025.28 1025.62 1025.53 1025.67 1025.80 1025.44 1024.55 1024.01 1023.71 1023.73 1023.54 1022.77 1022.65 1022.37 1022.17 1021.68 1021.29 1020.78 1020.21 1020.25 1020.56 1019.51 1017.42 1015.67 1014.44 1012.89 1012.80 1011.20 1010.69 1009.54 1009.31 1006.68 1003.90 1002.91 1000.37 998.36 996.13 995.74 995.66 995.72 995.77 995.88 995.72
1026.99 1026.10 1025.46 1025.72 1025.97 1026.22 1026.39 1025.57 1024.79 1024.34 1024.17 1024.15 1024.10 1023.70 1023.40 1023.27 1023.23 1022.70 1021.99 1021.18 1020.75 1020.48 1020.97 1020.19 1018.23 1014.38 1013.00 1012.10 1010.82 1010.36 1009.53 1010.08 1008.85 1006.00 1003.64 1001.70 998.78 997.15 995.57 995.68 995.80 995.93 995.92 995.79 995.80
1027.05 1026.59 1026.10 1025.98 1026.17 1026.78 1026.51 1025.61 1024.95 1024.44 1024.40 1024.68 1024.59 1024.45 1024.20 1023.96 1023.76 1023.42 1022.55 1021.58 1020.83 1020.72 1020.81 1020.34 1018.68 1014.04 1013.65 1011.80 1009.74 1009.33 1008.22 1008.52 1008.00 1006.05 1003.73 1001.72 998.91 997.21 996.41 996.03 996.02 996.01 996.09 996.33 996.26
1027.82 1027.05 1026.35 1026.29 1026.74 1026.57 1026.26 1025.95 1025.64 1024.94 1024.80 1024.72 1024.63 1024.71 1024.63 1024.40 1024.19 1023.87 1022.95 1022.32 1021.40 1021.23 1020.45 1019.09 1017.23 1015.46 1013.39 1010.70 1009.49 1009.07 1008.61 1007.76 1007.39 1005.68 1003.83 1002.47 999.52 997.73 997.25 996.81 996.81 996.87 996.94 997.16 997.31
1028.37 1027.45 1026.58 1026.79 1026.82 1026.39 1026.10 1026.19 1026.10 1025.53 1025.10 1024.81 1024.80 1024.78 1024.81 1024.82 1024.58 1023.66 1022.90 1021.70 1021.36 1021.15 1020.45 1019.16 1017.35 1015.17 1012.68 1010.56 1009.70 1009.86 1008.92 1007.73 1006.32 1005.14 1002.96 1002.21 1000.42 998.52 997.59 997.42 997.85 998.01 998.06 998.09 998.19
1028.89 1027.92 1027.25 1027.30 1026.99 1026.94 1026.58 1026.18 1025.80 1025.29 1025.34 1025.13 1024.73 1024.66 1024.64 1024.60 1024.19 1023.63 1022.78 1021.54 1021.01 1020.43 1019.58 1019.23 1017.51 1015.39 1014.20 1012.91 1011.88 1010.09 1008.98 1007.61 1006.17 1004.47 1003.17 1001.75 1000.81 998.51 998.40 998.41 998.60 998.75 998.89 998.76 998.83
1029.03 1028.24 1027.95 1027.46 1027.02 1026.88 1026.66 1026.22 1025.77 1025.20 1024.95 1024.76 1024.55 1024.45 1024.39 1024.29 1023.73 1022.92 1022.32 1021.20 1020.22 1019.79 1019.19 1019.38 1017.60 1016.13 1014.73 1013.36 1011.71 1009.84 1008.48 1007.37 1004.99 1003.42 1002.95 1001.58 1000.88 999.87 999.09 998.92 999.02 999.09 999.26 999.46 999.60
1029.08 1028.69 1028.18 1027.89 1027.27 1026.77 1026.00 1025.41 1024.98 1024.43 1024.40 1023.87 1023.80 1023.27 1023.32 1023.15 1022.87 1022.40 1022.00 1021.29 1020.50 1019.18 1019.10 1018.89 1017.71 1016.56 1014.38 1013.07 1011.14 1009.84 1007.80 1005.96 1005.13 1003.49 1002.92 1001.74 1000.69 999.50 999.03 998.93 999.20 999.43 999.64 999.72 1000.00
1028.83 1028.82 1028.60 1027.41 1026.89 1026.45 1025.73 1024.92 1024.46 1024.20 1023.76 1023.01 1022.74 1022.49 1022.07 1021.76 1021.48 1021.21 1021.15 1020.79 1020.38 1019.56 1018.56 1018.68 1017.74 1017.06 1015.07 1013.10 1010.81 1008.77 1007.20 1006.43 1005.33 1003.71 1002.40 1001.97 1000.97 999.92 999.89 999.90 1000.23 1000.09 1000.13 1000.16 1000.02
Wind_Speed
19 19 19 20 20 21 21 22 22 23 22 24 24 25 26 27 27 12 11 11 14 18 16 12 13 8 7 5 5 4 4 9 14 13 14 12 2 3 3 5 2 2 6 9 16
17 18 19 20 21 21 21 21 22 23 23 23 24 25 26 27 21 11 8 15 20 21 12 13 10 11 4 4 5 6 5 10 10 12 8 12 7 3 5 6 6 4 7 13 13
21 20 19 19 20 21 21 21 22 23 23 23 24 25 26 25 7 5 10 15 21 20 15 12 10 9 7 8 9 8 10 13 15 11 7 6 10 9 7 9 10 8 15 15 9
19 20 21 22 21 21 21 22 23 23 24 23 24 25 26 15 5 6 8 12 21 16 16 10 6 5 5 9 11 17 16 15 16 12 5 6 7 11 10 10 7 6 5 14 14
19 20 19 21 22 23 23 23 24 24 24 23 23 21 13 7 3 12 16 17 15 13 14 14 11 9 11 8 12 18 15 17 14 14 9 7 10 12 11 10 9 4 7 12 11
19 19 20 21 21 22 22 24 25 25 25 24 20 14 7 2 11 17 15 11 13 11 11 10 10 18 12 13 14 11 13 14 12 14 16 10 16 9 9 10 12 6 7 8 12
20 20 21 21 21 22 23 24 25 25 24 24 18 8 6 9 11 11 12 11 11 12 12 11 11 11 13 10 11 15 19 18 17 11 12 4 16 18 18 13 14 11 11 10 10
20 21 22 22 23 24 25 26 26 24 22 17 14 2 5 4 6 13 15 14 12 11 11 7 10 13 10 11 10 10 13 15 4 19 14 10 19 8 17 18 19 12 11 11 12
21 21 23 22 24 24 25 28 25 16 10 18 7 2 2 3 19 18 16 15 17 13 19 10 8 11 10 13 11 9 13 16 15 18 13 18 13 14 20 13 20 18 15 12 14
19 21 21 22 22 25 25 27 19 4 14 4 1 5 5 8 15 10 15 12 11 14 12 2 4 10 8 11 17 9 18 18 24 11 15 15 21 11 13 8 13 11 12 15 15
20 21 21 23 24 23 18 8 7 2 9 5 11 9 9 14 7 12 14 15 14 11 8 8 12 19 9 17 21 21 25 24 18 12 21 18 17 17 15 16 12 9 8 9 9
20 22 22 22 22 14 9 8 8 4 9 16 7 7 8 7 5 9 14 12 13 12 13 7 20 13 17 20 23 24 27 32 22 22 10 14 16 13 14 15 15 12 13 11 9
19 19 20 21 18 7 8 9 6 9 5 8 1 2 4 8 6 16 12 11 11 10 11 13 19 25 23 23 25 24 29 23 23 16 18 4 11 15 15 16 15 18 17 14 17
19 18 19 22 5 7 6 10 7 6 4 4 4 2 7 10 4 20 9 9 9 12 16 14 8 15 23 25 21 26 20 24 21 16 21 6 20 19 12 20 25 25 21 18 16
19 19 20 17 7 7 9 9 8 2 2 2 5 2 8 9 13 10 5 4 12 19 12 18 23 22 24 26 24 28 18 23 26 21 19 21 16 25 10 19 22 16 25 22 20
18 19 20 8 6 6 7 9 5 3 1 3 1 11 13 13 13 11 9 10 16 13 16 27 22 24 26 26 28 19 14 22 19 18 17 26 20 19 22 28 10 18 17 21 20
20 20 16 6 6 5 6 5 1 0 2 3 9 14 13 17 13 11 13 13 14 19 18 24 22 27 29 26 22 19 11 8 12 11 15 20 18 28 9 18 17 19 12 11 15
21 20 6 4 6 5 3 2 1 3 3 9 11 14 13 12 12 15 15 14 18 10 16 13 18 17 13 13 14 20 17 9 16 10 26 18 14 25 22 31 24 7 7 8 11
20 4 4 5 4 2 2 1 2 7 10 9 12 11 6 10 14 14 12 15 13 17 9 18 15 29 31 29 12 5 21 16 24 21 8 7 21 21 17 17 11 10 14 12 9
6 6 2 4 3 2 1 4 4 7 9 9 9 4 14 15 11 11 9 10 15 17 5 11 24 29 26 17 16 19 9 12 11 10 11 7 23 15 14 24 13 10 10 10 9
4 4 3 4 2 1 3 3 5 9 9 2 4 8 12 14 10 13 8 18 13 16 16 19 17 30 11 5 15 9 14 12 10 16 5 2 7 3 7 4 2 9 1 2 5
4 3 2 2 2 2 3 2 4 8 9 9 4 7 10 12 10 11 12 12 13 14 15 23 7 9 17 25 25 20 21 21 14 22 17 12 9 3 4 6 6 7 4 5 6
5 4 2 1 3 3 4 2 2 4 6 4 5 6 8 12 9 7 10 9 15 13 7 8 6 8 10 6 6 4 14 17 19 15 21 17 13 2 4 9 7 6 6 4 5
3 4 2 3 3 6 8 9 6 8 4 6 10 11 11 9 10 9 16 10 17 18 25 13 13 7 11 15 17 17 16 24 22 16 13 15 10 26 14 9 7 6 4 3 3
2 3 2 4 4 8 10 7 10 12 9 11 9 9 9 7 9 12 13 21 19 16 10 8 12 16 17 20 21 20 20 20 16 22 18 18 9 15 6 6 5 4 3 4 4
2 3 3 8 11 14 16 13 16 19 13 14 11 16 14 14 12 17 15 14 13 16 17 9 11 19 18 20 13 20 22 13 10 16 18 12 9 4 6 6 7 6 4 3 4
1 3 4 7 8 10 11 13 16 11 13 15 14 13 15 13 16 15 14 15 17 22 23 15 5 9 13 16 26 2 7 9 12 9 13 14 10 8 5 8 9 7 7 6 5
Wind_Direction
20 15 10 8 4 1 2 359 357 357 352 347 342 338 336 333 325 318 46 352 337 333 316 283 277 254 264 259 242 275 258 248 249 249 265 275 240 277 98 316 287 156 51 101 114
11 6 2 359 357 356 356 355 353 351 348 345 344 341 338 330 317 64 6 359 356 339 333 334 323 331 245 224 220 213 221 247 261 278 293 323 326 320 311 242 253 150 84 109 127
5 0 356 353 349 349 348 348 347 345 344 341 341 338 336 323 296 75 13 7 352 340 332 306 290 288 259 246 227 216 244 269 279 283 324 303 318 313 287 288 272 221 159 147 160
360 357 356 351 346 343 343 341 340 339 337 339 339 337 330 304 53 67 22 349 350 340 333 324 293 260 257 242 233 251 262 269 277 286 321 279 295 276 274 256 288 2 111 153 174
356 352 348 346 344 344 340 337 333 331 329 333 335 336 327 352 22 4 355 340 332 342 341 323 304 281 261 265 272 257 255 260 286 292 255 270 248 260 275 278 274 85 89 160 183
354 357 353 345 340 338 336 333 327 322 323 326 331 327 321 337 18 343 342 345 345 338 320 314 309 320 302 283 275 289 302 288 254 263 271 247 263 246 249 250 262 211 184 195 188
354 355 353 346 342 338 333 329 321 319 322 319 323 302 276 274 330 337 346 347 354 347 324 304 296 305 322 303 276 278 280 274 261 254 256 273 264 239 245 253 248 236 202 192 213
351 351 352 346 343 340 332 325 319 318 315 314 318 255 282 333 320 2 356 343 351 330 335 285 278 279 262 299 304 282 275 267 223 229 237 185 254 256 230 225 240 225 244 196 206
350 353 347 343 341 337 331 320 314 320 329 298 252 253 38 51 6 347 338 323 321 332 329 301 271 254 257 246 277 231 265 264 258 229 227 193 255 238 240 233 224 226 224 230 198
348 347 344 345 341 340 333 315 305 336 314 218 254 257 65 347 343 341 356 342 329 325 324 34 241 256 219 219 233 218 241 245 247 252 221 220 232 248 278 253 235 229 216 220 225
349 345 347 346 344 341 331 339 8 203 13 359 318 303 301 336 294 39 358 344 360 356 334 304 286 240 249 248 260 270 276 273 265 222 243 239 241 249 240 248 247 239 250 230 245
349 349 346 343 337 328 351 34 47 233 307 299 271 253 257 309 334 22 346 16 359 351 340 318 259 283 281 273 271 260 259 260 280 281 258 247 237 242 242 245 252 235 216 221 236
347 345 341 339 323 347 347 34 355 350 302 303 18 27 15 316 33 355 2 350 346 336 342 294 281 319 301 298 293 276 257 269 266 276 281 243 264 259 252 260 248 243 236 221 212
345 343 342 338 318 328 19 357 343 336 295 122 143 83 358 331 196 322 17 339 332 332 320 286 320 322 313 284 269 274 300 291 269 258 255 169 271 249 244 239 233 233 231 226 222
344 343 342 334 312 327 342 335 329 246 6 328 89 181 11 12 300 5 49 6 327 312 287 262 294 285 270 274 283 271 266 274 299 259 258 259 273 257 226 245 242 231 229 224 219
343 339 339 336 302 9 334 317 284 233 256 342 89 355 354 342 324 325 355 340 300 292 286 287 281 262 262 260 259 280 292 259 278 270 246 236 229 260 225 232 225 230 238 211 212
338 330 323 313 316 358 328 312 289 342 353 333 347 346 336 321 346 343 342 333 318 322 321 318 291 277 249 259 254 254 267 242 223 223 235 226 227 237 242 224 227 222 238 223 198
334 318 306 307 328 338 313 291 313 95 319 331 0 328 304 349 324 341 329 322 316 329 307 315 334 322 316 321 286 245 224 235 231 194 232 206 229 245 235 254 261 246 247 264 221
334 307 289 40 3 18 307 314 304 350 0 348 315 302 342 316 341 327 322 305 325 314 330 309 289 300 290 293 258 269 234 248 261 287 233 208 245 257 280 223 222 240 237 227 235
322 305 324 47 79 53 300 255 297 297 307 323 310 287 328 328 322 324 322 298 316 308 75 298 298 291 287 292 260 222 194 218 218 226 238 244 226 225 204 231 230 230 223 231 224
314 322 87 99 126 25 253 265 329 307 321 27 310 304 304 304 314 313 283 303 300 333 325 288 266 278 295 255 283 283 249 221 285 234 253 240 245 340 284 30 317 277 175 316 238
332 292 56 155 286 216 257 329 349 296 321 300 259 266 278 308 310 303 287 278 314 313 306 289 264 258 262 274 266 253 270 229 220 225 234 248 276 23 16 62 12 344 6 31 336
325 279 103 189 255 241 253 267 243 290 304 297 294 291 285 289 296 283 293 288 293 313 303 322 272 299 303 303 75 325 305 309 246 271 231 223 237 230 59 54 29 12 3 17 342
320 300 171 185 298 298 298 278 266 206 257 255 266 293 288 285 280 278 292 297 311 305 301 334 292 247 281 294 299 296 311 302 255 243 228 247 230 265 275 22 7 6 12 53 25
206 274 63 315 268 251 265 278 281 280 231 259 282 248 261 274 297 283 297 306 306 302 306 328 292 307 308 298 292 275 285 294 252 234 237 225 235 247 334 347 330 317 337 128 63
288 318 348 292 282 280 274 262 264 277 279 278 271 278 261 263 276 292 309 307 298 307 303 296 285 305 302 302 295 296 296 307 248 250 242 256 241 50 5 10 22 21 7 69 161
225 255 261 283 285 283 284 291 291 280 273 273 276 279 285 278 293 282 281 285 281 285 288 292 291 323 292 304 303 278 317 313 312 321 237 234 251 256 48 32 17 12 39 32 75